W2TAO Weather Reports


time (UTC)temp
F
wind
direction
speed
knots
gust
knots
rain 1hr
in
rain 24hr
in
rain mn
in
humidity
%
barometer
mb
20260506162658 58 235 5.2 5.2 0.09 0.14 0.14 99 1008.8
20260506162156 59 212 0.0 3.5 0.05 0.13 0.13 99 1008.8
20260506161653 59 220 4.3 4.3 0.02 0.13 0.13 99 1009.1
20260506161150 59 267 1.7 3.5 0.05 0.13 0.13 99 1009.0
20260506160648 59 169 2.6 3.5 0.07 0.12 0.12 99 1009.1
20260506160144 59 191 0.0 1.7 0.05 0.11 0.11 99 1009.5
20260506155643 58 268 1.7 4.3 0.05 0.11 0.11 99 1009.7
20260506155140 59 236 1.7 4.3 0.02 0.10 0.10 99 1009.3
20260506153242 59 240 1.7 2.6 0.05 0.10 0.10 99 1009.4
20260506152739 59 222 3.5 3.5 0.05 0.09 0.09 99 1009.3
20260506152236 59 180 0.0 3.5 0.07 0.09 0.09 99 1009.5
20260506151735 59 209 1.7 3.5 0.09 0.09 0.09 98 1009.4
20260506151231 59 232 0.0 2.6 0.07 0.08 0.08 98 1009.4
20260506150728 58 202 1.7 4.3 0.07 0.07 0.07 98 1009.6
20260506150225 59 329 0.0 3.5 0.05 0.06 0.06 98 1009.6
20260506145722 58 217 1.7 5.2 0.07 0.06 0.06 98 1009.7
20260506145218 59 191 1.7 2.6 0.07 0.06 0.06 98 1009.8
20260506144716 59 204 1.7 1.7 0.05 0.05 0.05 97 1009.9
20260506144213 59 208 0.0 2.6 0.05 0.04 0.04 97 1010.0
20260506143710 59 220 1.7 2.6 0.07 0.04 0.04 97 1010.0
20260506143208 59 215 0.9 1.7 0.07 0.04 0.04 96 1009.9
20260506142706 59 186 1.7 1.7 0.07 0.03 0.03 96 1010.0
20260506142204 59 204 0.9 1.7 0.05 0.02 0.02 95 1010.0
20260506141702 59 326 0.0 1.7 0.05 0.02 0.02 95 1010.0
20260506141159 59 249 0.9 1.7 0.02 0.01 0.01 94 1010.0
20260506140657 60 245 1.7 1.7 0.02 0.01 0.01 93 1010.1
20260506140154 60 227 1.7 5.2 0.02 0.01 0.01 92 1010.0
20260506135651 60 201 1.7 4.3 0.02 0.00 0.00 91 1010.2
20260506135147 60 266 1.7 3.5 0.02 0.00 0.00 89 1010.0
20260506134643 60 242 1.7 3.5 0.00 0.00 0.00 88 1010.3
20260506134140 60 196 1.7 6.1 0.00 0.00 0.00 87 1010.2
20260506133637 60 257 0.0 3.5 0.00 0.00 0.00 87 1010.2
20260506133134 60 221 2.6 6.1 0.00 0.00 0.00 87 1010.2
20260506132631 60 254 1.7 4.3 0.00 0.00 0.00 87 1010.0
20260506132128 60 196 6.1 7.8 0.00 0.00 0.00 88 1010.3
20260506131625 60 187 3.5 3.5 0.00 0.00 0.00 88 1010.1
20260506131121 60 228 2.6 11.3 0.00 0.00 0.00 88 1009.9
20260506130619 60 218 0.0 2.6 0.00 0.00 0.00 89 1009.8
20260506130116 60 232 1.7 3.5 0.00 0.00 0.00 88 1009.7
20260506125614 61 232 2.6 5.2 0.00 0.00 0.00 86 1009.8
20260506125112 60 221 3.5 3.5 0.00 0.00 0.00 88 1009.8
20260506124609 61 201 3.5 4.3 0.00 0.00 0.00 86 1009.6
20260506124107 61 131 1.7 4.3 0.00 0.00 0.00 85 1009.7
20260506123604 61 254 1.7 2.6 0.00 0.00 0.00 84 1009.7
20260506123103 61 204 1.7 3.5 0.00 0.00 0.00 83 1010.1
20260506122559 61 207 2.6 3.5 0.00 0.00 0.00 83 1009.9
20260506122057 61 230 3.5 5.2 0.00 0.00 0.00 82 1010.0
20260506121554 61 209 2.6 2.6 0.00 0.00 0.00 82 1010.1
20260506121050 61 162 2.6 3.5 0.00 0.00 0.00 82 1010.2
20260506120549 61 85 3.5 4.3 0.00 0.00 0.00 82 1010.0
20260506120045 61 216 1.7 3.5 0.00 0.00 0.00 82 1010.2
20260506115543 61 235 1.7 3.5 0.00 0.00 0.00 82 1010.1
20260506115042 61 210 1.7 3.5 0.00 0.00 0.00 82 1010.0
20260506114539 61 217 3.5 4.3 0.00 0.00 0.00 82 1010.0
20260506114037 61 252 3.5 7.8 0.00 0.00 0.00 81 1009.8
20260506113535 61 214 0.0 2.6 0.00 0.00 0.00 81 1010.0
20260506113032 62 197 0.9 2.6 0.00 0.00 0.00 81 1010.0
20260506112528 62 247 2.6 5.2 0.00 0.00 0.00 80 1009.9
20260506112025 62 212 1.7 6.1 0.00 0.00 0.00 80 1010.1
20260506111524 62 299 0.0 4.3 0.00 0.00 0.00 80 1009.9
20260506111020 61 260 0.9 4.3 0.00 0.00 0.00 80 1009.8
20260506110518 61 227 1.7 1.7 0.00 0.00 0.00 81 1009.8
20260506110015 61 254 0.9 1.7 0.00 0.00 0.00 80 1009.7
20260506105511 61 202 0.9 2.6 0.00 0.00 0.00 79 1009.8
20260506105009 61 257 1.7 2.6 0.00 0.00 0.00 79 1009.5
20260506104507 61 343 1.7 2.6 0.00 0.00 0.00 78 1009.6
20260506104004 61 150 0.0 3.5 0.00 0.00 0.00 78 1009.5
20260506103501 61 245 0.0 4.3 0.00 0.00 0.00 77 1009.5
20260506102958 61 113 0.9 1.7 0.00 0.00 0.00 77 1009.6
20260506102456 61 15 0.0 1.7 0.00 0.00 0.00 77 1009.8
20260506101953 61 259 0.9 2.6 0.00 0.00 0.00 77 1009.8
20260506101449 61 112 0.9 1.7 0.00 0.00 0.00 76 1009.8
20260506100947 61 224 1.7 3.5 0.00 0.00 0.00 76 1009.5
20260506100445 61 211 1.7 2.6 0.00 0.00 0.00 76 1009.5
20260506095943 61 237 3.5 3.5 0.00 0.00 0.00 76 1009.4
20260506095441 61 216 2.6 4.3 0.00 0.00 0.00 75 1009.8
20260506094937 61 180 1.7 2.6 0.00 0.00 0.00 75 1009.6
20260506094436 61 207 0.9 3.5 0.00 0.00 0.00 75 1009.8
20260506093933 61 236 1.7 2.6 0.00 0.00 0.00 75 1009.4
20260506093431 61 179 1.7 1.7 0.00 0.00 0.00 74 1009.5
20260506092928 61 249 1.7 1.7 0.00 0.00 0.00 74 1009.5
20260506092426 61 220 0.9 1.7 0.00 0.00 0.00 73 1009.4
20260506091922 62 306 1.7 1.7 0.00 0.00 0.00 73 1009.6
20260506091421 61 189 1.7 1.7 0.00 0.00 0.00 73 1009.8
20260506090917 62 278 0.9 1.7 0.00 0.00 0.00 72 1009.8
20260506090415 62 224 1.7 1.7 0.00 0.00 0.00 72 1009.8
20260506085912 62 141 0.9 4.3 0.00 0.00 0.00 71 1009.7
20260506085408 62 314 0.0 1.7 0.00 0.00 0.00 72 1009.7
20260506084904 62 178 1.7 3.5 0.00 0.00 0.00 72 1009.6
20260506084401 61 231 1.7 1.7 0.00 0.00 0.00 72 1009.6
20260506083858 61 205 0.0 1.7 0.00 0.00 0.00 72 1009.7
20260506083355 62 180 0.0 1.7 0.00 0.00 0.00 71 1009.7
20260506082852 62 165 1.7 3.5 0.00 0.00 0.00 72 1009.7
20260506082349 61 179 1.7 3.5 0.00 0.00 0.00 72 1009.7
20260506081845 61 238 0.9 1.7 0.00 0.00 0.00 72 1009.8
20260506081344 61 190 1.7 1.7 0.00 0.00 0.00 71 1009.9
20260506080841 62 241 1.7 1.7 0.00 0.00 0.00 70 1010.0
20260506080337 62 245 1.7 5.2 0.00 0.00 0.00 70 1009.9
20260506073321 63 257 0.0 1.7 0.00 0.00 0.00 68 1010.0
20260506072818 63 180 0.0 2.6 0.00 0.00 0.00 67 1009.8
20260506072316 63 160 0.9 1.7 0.00 0.00 0.00 67 1009.9
20260506071813 63 212 1.7 3.5 0.00 0.00 0.00 66 1010.0
20260506071311 63 224 2.6 5.2 0.00 0.00 0.00 66 1010.1
20260506070808 63 216 1.7 2.6 0.00 0.00 0.00 66 1010.0
20260506070305 64 236 1.7 2.6 0.00 0.00 0.00 65 1010.0
20260506062242 64 229 2.6 4.3 0.00 0.00 0.00 64 1010.4
20260506061738 64 226 2.6 4.3 0.00 0.00 0.00 64 1010.6
20260506061235 64 210 0.9 4.3 0.00 0.00 0.00 63 1010.5
20260506060734 65 238 5.2 7.0 0.00 0.00 0.00 63 1010.6
20260506060231 65 216 2.6 4.3 0.00 0.00 0.00 62 1010.6
20260506051203 65 229 3.5 5.2 0.00 0.00 0.00 60 1010.8
20260506050701 66 236 1.7 3.5 0.00 0.00 0.00 59 1010.5
20260506050158 66 185 2.6 4.3 0.00 0.00 0.00 58 1010.7
20260506044649 67 234 0.0 3.5 0.00 0.00 0.00 57 1010.7
20260506044145 67 223 1.7 3.5 0.00 0.00 0.00 56 1011.0
20260506043643 67 183 2.6 2.6 0.00 0.00 0.00 56 1010.7
20260506043140 67 223 2.6 4.3 0.00 0.00 0.00 56 1010.7
20260506042639 67 233 3.5 6.1 0.00 0.00 0.00 55 1010.7
20260506042137 67 224 2.6 7.0 0.00 0.00 0.00 55 1010.8
20260506041635 67 231 4.3 6.1 0.00 0.00 0.00 55 1010.7
20260506041132 67 247 1.7 3.5 0.00 0.00 0.00 55 1010.7
20260506040629 67 218 4.3 5.2 0.00 0.00 0.00 55 1010.8
20260506040126 67 227 3.5 6.1 0.00 0.00 0.00 55 1010.5
20260506035623 67 223 2.6 5.2 0.00 0.00 0.00 55 1010.5
20260506035119 67 211 1.7 7.0 0.00 0.00 0.00 55 1010.8
20260506034617 67 179 1.7 4.3 0.00 0.00 0.00 54 1010.5
20260506034114 68 210 2.6 7.8 0.00 0.00 0.00 54 1010.7
20260506033611 68 241 3.5 5.2 0.00 0.00 0.00 54 1010.5
20260506033108 67 143 1.7 4.3 0.00 0.00 0.00 54 1010.5
20260506032606 68 230 1.7 3.5 0.00 0.00 0.00 54 1010.5
20260506032102 68 234 2.6 3.5 0.00 0.00 0.00 54 1010.5
20260506031559 68 244 1.7 7.8 0.00 0.00 0.00 54 1010.5
20260506031056 68 121 1.7 3.5 0.00 0.00 0.00 53 1010.5
20260506030555 68 171 0.0 3.5 0.00 0.00 0.00 53 1010.7
20260506030051 68 214 2.6 4.3 0.00 0.00 0.00 53 1010.6
20260506025548 69 204 3.5 5.2 0.00 0.00 0.00 52 1010.7
20260506025044 68 241 1.7 5.2 0.00 0.00 0.00 52 1010.4
20260506024542 68 192 2.6 2.6 0.00 0.00 0.00 51 1010.5
20260506024038 68 217 0.9 3.5 0.00 0.00 0.00 52 1010.8
20260506023534 69 152 0.0 4.3 0.00 0.00 0.00 49 1010.8
20260506023032 69 212 0.0 3.5 0.00 0.00 0.00 50 1010.6
20260506022529 69 228 1.7 2.6 0.00 0.00 0.00 50 1010.7
20260506022026 69 195 0.9 2.6 0.00 0.00 0.00 49 1010.6
20260506021524 70 221 0.9 1.7 0.00 0.00 0.00 49 1010.5
20260506021021 70 248 2.6 4.3 0.00 0.00 0.00 47 1010.6
20260506020518 70 111 1.7 6.1 0.00 0.00 0.00 48 1010.5
20260506020016 70 230 4.3 4.3 0.00 0.00 0.00 48 1010.7
20260506015513 70 121 7.0 7.0 0.00 0.00 0.00 48 1010.4
20260506015010 70 229 1.7 3.5 0.00 0.00 0.00 47 1010.4
20260506014507 70 235 4.3 6.1 0.00 0.00 0.00 47 1010.2
20260506014003 71 222 1.7 3.5 0.00 0.00 0.00 47 1010.3
20260506013501 71 126 0.9 7.0 0.00 0.00 0.00 47 1010.0
20260506012957 71 225 5.2 5.2 0.00 0.00 0.00 46 1010.2
20260506012453 71 211 2.6 7.0 0.00 0.00 0.00 47 1010.2
20260506011951 71 234 3.5 8.7 0.00 0.00 0.00 47 1009.9
20260506011448 71 142 0.0 3.5 0.00 0.00 0.00 48 1010.0
20260506010944 71 197 0.0 3.5 0.00 0.00 0.00 46 1010.1
20260506010444 71 215 0.0 3.5 0.00 0.00 0.00 47 1010.1
20260506005939 71 222 3.5 4.3 0.00 0.00 0.00 46 1009.8
20260506005438 71 126 2.6 3.5 0.00 0.00 0.00 48 1009.8
20260506004932 71 252 2.6 5.2 0.00 0.00 0.00 47 1009.7
20260506004431 71 122 1.7 3.5 0.00 0.00 0.00 48 1009.6
20260506003926 71 225 1.7 3.5 0.00 0.00 0.00 49 1009.6
20260506003423 72 190 1.7 4.3 0.00 0.00 0.00 47 1009.6
20260506002920 71 171 1.7 5.2 0.00 0.00 0.00 47 1009.5
20260506002415 72 205 0.0 3.5 0.00 0.00 0.00 47 1009.6
20260506001911 72 257 3.5 4.3 0.00 0.00 0.00 46 1009.5
20260506001408 72 212 1.7 3.5 0.00 0.00 0.00 46 1009.5
20260506000906 72 205 1.7 6.1 0.00 0.00 0.00 48 1009.3
20260506000403 72 206 1.7 3.5 0.00 0.00 0.00 46 1009.3
20260505235859 72 249 3.5 5.2 0.00 0.00 0.00 45 1009.2
20260505235358 72 205 0.0 7.8 0.00 0.00 0.00 46 1009.4
20260505234854 73 285 0.9 4.3 0.00 0.00 0.00 46 1009.4
20260505234352 73 209 2.6 6.1 0.00 0.00 0.00 45 1009.4
20260505233848 72 163 0.0 3.5 0.00 0.00 0.00 46 1009.4
20260505233346 73 135 1.7 6.1 0.00 0.00 0.00 46 1009.3
20260505232844 73 138 0.9 4.3 0.00 0.00 0.00 45 1009.3
20260505232342 73 102 1.7 5.2 0.00 0.00 0.00 45 1009.2
20260505231838 73 267 3.5 4.3 0.00 0.00 0.00 44 1009.1
20260505231335 74 221 6.1 11.3 0.00 0.00 0.00 43 1009.0
20260505230833 74 285 0.0 4.3 0.00 0.00 0.00 44 1008.9
20260505230330 74 237 5.2 5.2 0.00 0.00 0.00 43 1008.9
20260505225827 75 274 3.5 7.8 0.00 0.00 0.00 42 1009.0
20260505225324 74 256 5.2 7.0 0.00 0.00 0.00 42 1008.9
20260505224819 74 180 1.7 9.6 0.00 0.00 0.00 43 1009.1
20260505224317 74 234 4.3 7.8 0.00 0.00 0.00 43 1008.9
20260505223814 75 243 2.6 7.8 0.00 0.00 0.00 43 1008.8
20260505223311 74 245 4.3 7.8 0.00 0.00 0.00 43 1008.7
20260505222807 75 254 5.2 7.8 0.00 0.00 0.00 42 1008.7
20260505222305 75 205 1.7 6.1 0.00 0.00 0.00 44 1008.6
20260505221800 74 227 7.8 7.8 0.00 0.00 0.00 45 1008.5
20260505221257 75 107 1.7 2.6 0.00 0.00 0.00 47 1008.7
20260505220754 75 168 1.7 4.3 0.00 0.00 0.00 49 1008.5
20260505220251 75 212 1.7 2.6 0.00 0.00 0.00 44 1008.7
20260505215749 76 273 4.3 5.2 0.00 0.00 0.00 38 1008.4
20260505215247 76 249 3.5 3.5 0.00 0.00 0.00 39 1008.5
20260505214744 76 233 4.3 5.2 0.00 0.00 0.00 38 1008.4
20260505214242 76 277 0.0 4.3 0.00 0.00 0.00 37 1008.4
20260505213739 77 244 5.2 7.8 0.00 0.00 0.00 36 1008.2
20260505213236 77 232 6.1 9.6 0.00 0.00 0.00 36 1007.8
20260505212732 77 212 0.9 5.2 0.00 0.00 0.00 35 1008.1
20260505212229 77 278 6.1 9.6 0.00 0.00 0.00 35 1007.8
20260505211726 76 144 4.3 7.8 0.00 0.00 0.00 35 1008.4
20260505211224 76 168 3.5 9.6 0.00 0.00 0.00 35 1008.3
20260505210720 76 198 2.6 7.0 0.00 0.00 0.00 36 1008.1
20260505210217 77 240 3.5 7.8 0.00 0.00 0.00 35 1008.2
20260505205714 77 275 5.2 13.9 0.00 0.00 0.00 34 1008.1
20260505205212 77 219 5.2 11.3 0.00 0.00 0.00 35 1008.1
20260505204708 77 242 6.1 9.6 0.00 0.00 0.00 34 1008.2
20260505204207 77 222 5.2 7.8 0.00 0.00 0.00 34 1008.2
20260505203704 78 232 6.1 8.7 0.00 0.00 0.00 35 1008.2
20260505203200 78 205 2.6 10.4 0.00 0.00 0.00 34 1008.1
20260505202656 78 199 4.3 8.7 0.00 0.00 0.00 34 1007.8
20260505202152 79 221 3.5 8.7 0.00 0.00 0.00 33 1007.8
20260505201648 80 222 7.0 17.4 0.00 0.00 0.00 32 1007.8
20260505201147 80 217 6.1 11.3 0.00 0.00 0.00 33 1008.1
20260505200645 80 239 5.2 10.4 0.00 0.00 0.00 33 1008.1
20260505200141 81 214 7.0 7.8 0.00 0.00 0.00 34 1008.2
20260505195637 81 272 1.7 3.5 0.00 0.00 0.00 33 1008.2
20260505195135 79 232 4.3 13.0 0.00 0.00 0.00 34 1008.1
20260505194632 79 213 5.2 16.5 0.00 0.00 0.00 34 1008.4
20260505194127 81 216 2.6 4.3 0.00 0.00 0.00 34 1008.3
20260505193625 80 238 4.3 8.7 0.00 0.00 0.00 36 1008.5
20260505193121 80 220 3.5 9.6 0.00 0.00 0.00 35 1008.7
20260505192620 80 225 4.3 7.8 0.00 0.00 0.00 35 1008.7
20260505192117 80 234 5.2 7.8 0.00 0.00 0.00 35 1008.5
20260505191616 79 252 3.5 7.0 0.00 0.00 0.00 36 1008.7
20260505191113 78 299 0.9 7.0 0.00 0.00 0.00 36 1008.8
20260505190608 80 216 3.5 9.6 0.00 0.00 0.00 37 1008.9
20260505190104 78 239 4.3 9.6 0.00 0.00 0.00 36 1008.9
20260505185601 79 251 11.3 12.2 0.00 0.00 0.00 36 1008.7
20260505185057 81 232 5.2 5.2 0.00 0.00 0.00 36 1009.1
20260505184554 80 232 6.1 10.4 0.00 0.00 0.00 36 1009.2
20260505184051 79 261 5.2 12.2 0.00 0.00 0.00 38 1009.1
20260505183547 78 218 5.2 7.8 0.00 0.00 0.00 40 1009.3
20260505183045 79 237 3.5 12.2 0.00 0.00 0.00 38 1009.3
20260505182541 81 240 0.9 7.8 0.00 0.00 0.00 38 1009.6
20260505182038 80 248 7.0 11.3 0.00 0.00 0.00 37 1009.3
20260505181535 78 216 7.0 9.6 0.00 0.00 0.00 39 1009.4
20260505181032 79 239 7.0 11.3 0.00 0.00 0.00 40 1009.3
20260505180527 79 243 7.8 12.2 0.00 0.00 0.00 39 1009.7
20260505180026 79 254 9.6 12.2 0.00 0.00 0.00 38 1009.5
20260505175520 79 248 6.1 7.0 0.00 0.00 0.00 38 1009.5
20260505175018 79 174 4.3 9.6 0.00 0.00 0.00 39 1009.7
20260505174514 78 190 7.0 13.0 0.00 0.00 0.00 38 1009.6
20260505174010 78 262 7.0 11.3 0.00 0.00 0.00 39 1009.8
20260505173507 78 234 7.8 9.6 0.00 0.00 0.00 40 1009.6
20260505173004 77 196 5.2 7.0 0.00 0.00 0.00 43 1009.7
20260505172503 79 185 2.6 7.8 0.00 0.00 0.00 41 1009.7
20260505172003 78 225 4.3 11.3 0.00 0.00 0.00 42 1009.9
20260505171459 79 130 5.2 9.6 0.00 0.00 0.00 40 1010.0
20260505170955 77 224 7.8 8.7 0.00 0.00 0.00 42 1009.8
20260505170452 79 180 5.2 9.6 0.00 0.00 0.00 42 1009.8
20260505165948 77 223 8.7 8.7 0.00 0.00 0.00 41 1009.9
20260505165444 75 264 4.3 7.8 0.00 0.00 0.00 44 1010.0
20260505164939 78 140 4.3 9.6 0.00 0.00 0.00 42 1010.1
20260505164436 77 183 1.7 5.2 0.00 0.00 0.00 45 1010.0
20260505163934 77 256 2.6 7.8 0.00 0.00 0.00 45 1010.2
20260505163433 77 240 3.5 7.8 0.00 0.00 0.00 45 1010.3
20260505162932 78 226 5.2 5.2 0.00 0.00 0.00 50 1010.4